Weather History for Cancun, Mexico

Change the Weather History Date:

Friday, February 8, 2013

  Actual Average Record
Temperature  
Mean Temperature 75 °F -  
Max Temperature 84 °F 82 °F 87 °F (1999)
Min Temperature 66 °F 64 °F 50 °F (1998)
Cooling Degree Days 10    
Growing Degree Days 25 (Base 50)    
Moisture  
Dew Point 69 °F    
Average Humidity 82    
Maximum Humidity 100    
Minimum Humidity 66    
Precipitation  
Precipitation 0.00 in - - ()
Sea Level Pressure  
Sea Level Pressure 30.00 in    
Wind  
Wind Speed 5 mph ()    
Max Wind Speed 16 mph    
Max Gust Speed -    
Visibility 7.4 miles    
Events      
Averages and records for this station are not official NWS values.
T = Trace of Precipitation, MM = Missing Value Source: Averaged Metar Reports

Daily Weather History Graph

Daily Weather History Graph

Search for Another Location

Airport:

Trip Planner

Search our weather history database for the weather conditions in past years. The results will help you decide how hot, cold, wet, or windy it might be!

Date:

Astronomy

Feb. 08, 2013 Rise Set
Actual Time 6:21 AM CST 5:42 PM CST
Civil Twilight 5:58 AM CST 6:05 PM CST
Nautical Twilight 5:32 AM CST 6:31 PM CST
Astronomical Twilight 5:06 AM CST 6:57 PM CST
Moon 4:43 AM CST (2/8) 4:18 PM CST (2/8)
Length of Visible Light 12h 06m
Length of Day
11h 20m
Waning Crescent, 3% of the Moon is Illuminated
Feb 8
Waning Crescent
Feb 10
New
Feb 17
First Quarter
Feb 25
Full
Mar 4
Last Quarter

Hourly Weather History & Observations

Time (CST) Temp. Heat Index Dew Point Humidity Pressure Visibility Wind Dir Wind Speed Gust Speed Precip Events Conditions
12:41 AM 69.8 °F - 68.0 °F 94% 29.97 in 7.0 mi Calm Calm - N/A   Scattered Clouds
1:40 AM 68.0 °F - 66.2 °F 94% 29.96 in 7.0 mi Calm Calm - N/A   Scattered Clouds
2:41 AM 66.2 °F - 66.2 °F 100% 29.95 in 7.0 mi SE 3.5 mph - N/A   Partly Cloudy
3:41 AM 68.0 °F - 68.0 °F 100% 29.96 in 7.0 mi Calm Calm - N/A   Partly Cloudy
4:43 AM 66.2 °F - 64.4 °F 94% 29.97 in 7.0 mi SE 3.5 mph - N/A   Partly Cloudy
5:42 AM 68.0 °F - 66.2 °F 94% 29.96 in 7.0 mi SE 3.5 mph - N/A   Clear
6:47 AM 68.0 °F - 66.2 °F 94% 30.00 in 7.0 mi SE 3.5 mph - N/A   Partly Cloudy
7:41 AM 77.0 °F - 71.6 °F 83% 30.01 in 7.0 mi SSE 6.9 mph - N/A   Clear
8:43 AM 80.6 °F 83.9 °F 69.8 °F 70% 30.02 in 7.0 mi SE 15.0 mph - N/A   Clear
9:43 AM 82.4 °F 86.3 °F 69.8 °F 66% 30.04 in 7.0 mi SE 10.4 mph - N/A   Partly Cloudy
10:44 AM 82.4 °F 86.3 °F 69.8 °F 66% 30.04 in 7.0 mi South 9.2 mph - N/A   Scattered Clouds
11:45 AM 82.4 °F 87.2 °F 71.6 °F 70% 30.03 in 7.0 mi SE 11.5 mph - N/A   Mostly Cloudy
12:43 PM 84.2 °F 89.6 °F 71.6 °F 66% 30.01 in 7.0 mi SE 15.0 mph - N/A   Mostly Cloudy
1:41 PM 84.2 °F 89.6 °F 71.6 °F 66% 29.99 in 7.0 mi ESE 13.8 mph - N/A   Scattered Clouds
2:44 PM 82.4 °F 86.3 °F 69.8 °F 66% 29.99 in 8.0 mi SE 13.8 mph - N/A   Scattered Clouds
3:45 PM 82.4 °F 87.2 °F 71.6 °F 70% 29.98 in 8.0 mi SE 16.1 mph - N/A   Partly Cloudy
4:44 PM 80.6 °F 83.9 °F 69.8 °F 70% 29.99 in 8.0 mi SE 13.8 mph - N/A   Clear
5:41 PM 78.8 °F - 71.6 °F 78% 30.00 in 8.0 mi SE 9.2 mph - N/A   Clear
6:44 PM 75.2 °F - 69.8 °F 83% 30.01 in 8.0 mi SE 6.9 mph - N/A   Clear
7:42 PM 73.4 °F - 69.8 °F 88% 30.04 in 8.0 mi ESE 2.3 mph - N/A   Clear
8:41 PM 73.4 °F - 69.8 °F 88% 30.05 in 8.0 mi ESE 2.3 mph - N/A   Clear
9:48 PM 73.4 °F - 69.8 °F 88% 30.06 in 8.0 mi ESE 5.8 mph - N/A   Clear
10:47 PM 71.6 °F - 69.8 °F 94% 30.05 in 8.0 mi Calm Calm - N/A   Clear
11:46 PM 71.6 °F - 69.8 °F 94% 30.02 in 8.0 mi ESE 5.8 mph - N/A   Clear